< < Back
Terminal Aerodrome Forecast


Current Version              Previous Versions:   1  2  3  4  5  6  7  8  9  

Terminal Aerodrome Forecast

889
FTUS44 KBMX 211100
TAFBHM
TAF
KBHM 211138Z 2112/2212 05005KT P6SM SCT008 OVC015
      TEMPO 2112/2115 OVC008
     FM211900 12006KT P6SM OVC025
     FM220300 12006KT P6SM OVC012
     FM220900 12005KT 5SM BR OVC008=

Latest METAR

495
SAUS70 KWBC 220000 RRE
MTRBHM
METAR KBHM 212353Z 11004KT 10SM OVC021 12/08 A3008 RMK AO2 SLP184
T01170078 10133 20117 55000


USA.gov is the U.S. government's official web portal to all federal, state and local government web resources and services.